Orbital Elements at Epoch 2459200.5 (2020-Dec-17.0) TDB
Reference: JPL 15 (heliocentric ecliptic J2000)
Element | Value | Uncertainty (1-sigma) | Units |
e | .1720140953922881 | 5.3564e-08 | |
a | 2.724038935392401 | 1.505e-08 | au |
q | 2.255465842107506 | 1.5234e-07 | au |
i | 2.729779425805577 | 5.1496e-06 | deg |
node | 5.915411286696092 | 9.3368e-05 | deg |
peri | 10.8088092547978 | 9.4455e-05 | deg |
M | 340.2102525443422 | 1.5008e-05 | deg |
tp | 2459290.772640172102 (2021-Mar-17.27264017) | 6.8828e-05 | TDB |
period | 1642.171055228181 4.50 | 1.3609e-05 3.726e-08 | d yr |
n | .2192219859519919 | 1.8167e-09 | deg/d |
Q | 3.192612028677297 | 1.7638e-08 | au |
|
| | Orbit Determination Parameters
Additional Information
|